User: anonymous   Login
Location: Unspecified
(0.0000°N, 0.0000°E)
Time: 03:52:28
(UTC+00:00)
Language:

METEOR M2 - Orbit

View from above orbital plane
View from above orbital plane
View from above satellite
View from above satellite

Ground track
Ground track

The orbit data is extracted from the following two-line orbital elements,

1 40069U 14037A   18112.77412329 -.00000046  00000-0 -13633-5 0  9995
2 40069  98.6088 165.3340 0006648  47.4455 312.7267 14.20650926196510
Epoch (UTC): 22 April 2018 18:34:44
Eccentricity: 0.0006648
inclination: 98.6088°
perigee height: 818 km
apogee height: 828 km
right ascension of ascending node: 165.3340°
argument of perigee: 47.4455°
revolutions per day: 14.20650926
mean anomaly at epoch: 312.7267°
orbit number at epoch: 19651

The dashed part of the orbit path shows where the satellite is in the earth's shadow,  

DLR